Location: *
(43.0409°N, 0.1694°E)
Time: 11:38:53
(UTC+00:00)

IRS-P3 - Pass Details

Date: 03 October 2023
Orbit: 812 x 818 km, 99.0° (Epoch: 01 December)

Event Time Altitude Azimuth Distance (km) Brightness Sun altitude
Rises 05:20:32 0° 8° (N) 3,358 7.5 -7.8°
Reaches altitude 10° 05:22:57 10° 3° (N) 2,421 6.7 -7.3°
Maximum altitude 05:28:04 48° 291° (WNW) 1,064 4.4 -6.4°
Drops below altitude 10° 05:33:09 10° 218° (SW) 2,402 6.2 -5.4°
Sets 05:35:32 0° 213° (SSW) 3,328 7.0 -5.0°
